[Date Prev][Date Next][Thread Prev][Thread Next] - [Date Index][Thread Index][Author Index]
2 Line ISS Keps 2-14
- Subject: [sarex] 2 Line ISS Keps 2-14
- From: "Dave Larsen Ph.D." <doc@xxxxxxxxxxx>
- Date: Fri, 14 Feb 2003 02:47:22 -0800
ISS
1 25544U 98067A 03045.17054575 .00026198 00000-0 34323-3 0 6885
2 25544 51.6337 278.0610 0012290 197.9118 309.0412 15.58313093241814
----
Via the sarex mailing list at AMSAT.ORG courtesy of AMSAT-NA.
To unsubscribe, send "unsubscribe sarex" to Majordomo@amsat.org
AMSAT Home